Date String (YYYY-MM-DD hh:mm:ss) UTC,Instrument flags,absolute air pressure of the measurement (hPa),sample flow rate (lpm),inlet stack bypass flow (lpm),air temperature of the measurement (°C),ambient temperature measured by the external sensor (°C),aerosol sample conditioner tube jacket temperature (°C),OPC LED temperature (°C),internal box temperature (°C),relative humidity of the measurement (%),span deviation,mass concentration of particles derived from Lorenz-Mie calculation of OPC scattering (μg/m³),mass concentration of particles derived from Lorenz-Mie calculation of OPC scattering (μg/m³),mass concentration of particles derived from Lorenz-Mie calculation of OPC scattering (μg/m³)
DateTimeUTC,F1_M11,P_M11,Q1_M11,Q2_M11,T1_M11,T2_M11,T3_M11,T4_M11,T5_M11,U1_M11,ZSPAN_M11,X0_M11,X2_M11,X1_M11
2023-09-07 21:00:00,SystemResetWarning,0831.3,4.99,000.00,027.6,025.0,000.0,035.8,029.0,11.2,0000.0,0004.04,0001.38,0000.80
2023-09-07 21:01:00,SystemResetWarning,0831.3,5.01,000.00,027.5,024.4,000.0,035.7,028.8,10.9,0000.0,0005.27,0001.36,0000.79
2023-09-07 21:02:00,SystemResetWarning,0831.3,5.01,000.00,027.5,024.7,000.0,035.7,028.9,11.0,0000.0,0007.09,0001.35,0000.78
2023-09-07 21:03:00,SystemResetWarning,0831.3,4.99,000.00,027.5,025.1,000.0,035.7,029.0,11.0,0000.0,0007.38,0001.35,0000.78
2023-09-07 21:04:00,SystemResetWarning,0831.3,4.99,000.00,027.5,025.5,000.0,035.7,029.1,10.9,0000.0,0007.45,0001.36,0000.78
2023-09-07 21:05:00,SystemResetWarning,0831.3,5.00,000.00,027.6,025.9,000.0,035.8,029.3,10.7,0000.0,0007.37,0001.34,0000.78
2023-09-07 21:06:00,SystemResetWarning,0831.3,5.00,000.00,027.7,026.3,000.0,035.8,029.4,11.0,0000.0,0006.92,0001.32,0000.79
2023-09-07 21:07:00,SystemResetWarning,0831.3,5.00,000.00,027.7,026.6,000.0,035.8,029.5,10.5,0000.0,0006.60,0001.31,0000.79
2023-09-07 21:08:00,SystemResetWarning,0831.3,4.99,000.00,027.7,025.8,000.0,035.8,029.3,10.7,0000.0,0007.23,0001.30,0000.79
2023-09-07 21:09:00,SystemResetWarning,0831.3,4.99,000.00,027.6,024.6,000.0,035.8,028.9,11.0,0000.0,0007.58,0001.25,0000.80
2023-09-07 21:10:00,SystemResetWarning,0831.2,5.02,000.00,027.6,024.6,000.0,035.7,028.9,11.0,0000.0,0007.67,0001.31,0000.81
2023-09-07 21:11:00,SystemResetWarning,0831.2,5.00,000.00,027.5,024.9,000.0,035.7,029.0,10.6,0000.0,0008.05,0001.32,0000.82
2023-09-07 21:12:00,SystemResetWarning,0831.1,5.00,000.00,027.5,025.3,000.0,035.7,029.1,10.8,0000.0,0007.93,0001.35,0000.83
2023-09-07 21:13:00,SystemResetWarning,0831.2,5.00,000.00,027.6,025.7,000.0,035.8,029.2,10.8,0000.0,0006.41,0001.38,0000.84
2023-09-07 21:14:00,SystemResetWarning,0831.2,5.00,000.00,027.7,026.1,000.0,035.8,029.4,10.9,0000.0,0006.06,0001.44,0000.85
2023-09-07 21:15:00,SystemResetWarning,0831.2,5.00,000.00,027.7,026.5,000.0,035.8,029.5,10.9,0000.0,0005.84,0001.45,0000.85
2023-09-07 21:16:00,SystemResetWarning,0831.2,4.98,000.00,027.7,025.7,000.0,035.8,029.2,10.8,0000.0,0007.34,0001.48,0000.86
2023-09-07 21:17:00,SystemResetWarning,0831.2,5.00,000.00,027.6,024.5,000.0,035.8,028.9,10.4,0000.0,0009.11,0001.52,0000.85
2023-09-07 21:18:00,SystemResetWarning,0831.2,5.02,000.00,027.6,024.5,000.0,035.8,029.0,10.4,0000.0,0009.30,0001.55,0000.85
2023-09-07 21:19:00,SystemResetWarning,0831.3,4.99,000.00,027.5,024.9,000.0,035.8,029.0,10.8,0000.0,0008.85,0001.55,0000.85
2023-09-07 21:20:00,SystemResetWarning,0831.2,5.00,000.00,027.6,025.3,000.0,035.8,029.1,11.2,0000.0,0008.94,0001.55,0000.85
2023-09-07 21:21:00,SystemResetWarning,0831.3,5.01,000.00,027.6,025.7,000.0,035.8,029.3,11.2,0000.0,0009.56,0001.54,0000.85
2023-09-07 21:22:00,SystemResetWarning,0831.3,5.01,000.00,027.7,026.1,000.0,035.8,029.4,11.1,0000.0,0009.26,0001.55,0000.85
2023-09-07 21:23:00,SystemResetWarning,0831.3,5.00,000.00,027.7,026.5,000.0,035.8,029.5,11.2,0000.0,0008.98,0001.53,0000.84
2023-09-07 21:24:00,SystemResetWarning,0831.3,4.99,000.00,027.8,026.5,000.0,035.9,029.5,11.3,0000.0,0008.82,0001.50,0000.83
2023-09-07 21:25:00,SystemResetWarning,0831.3,4.99,000.00,027.7,025.2,000.0,035.8,029.1,11.0,0000.0,0008.71,0001.41,0000.83
2023-09-07 21:26:00,SystemResetWarning,0831.3,5.01,000.00,027.6,024.5,000.0,035.8,028.9,11.3,0000.0,0008.77,0001.38,0000.82
2023-09-07 21:27:00,SystemResetWarning,0831.2,5.01,000.00,027.6,024.7,000.0,035.8,029.0,11.1,0000.0,0008.20,0001.39,0000.81
2023-09-07 21:28:00,SystemResetWarning,0831.2,5.00,000.00,027.6,025.0,000.0,035.8,029.0,11.0,0000.0,0006.57,0001.39,0000.82
2023-09-07 21:29:00,SystemResetWarning,0831.3,5.00,000.00,027.6,025.5,000.0,035.8,029.1,10.9,0000.0,0006.25,0001.38,0000.81
2023-09-07 21:30:00,SystemResetWarning,0831.3,5.00,000.00,027.6,025.9,000.0,035.8,029.3,11.0,0000.0,0006.40,0001.39,0000.82
2023-09-07 21:31:00,SystemResetWarning,0831.2,5.00,000.00,027.7,026.3,000.0,035.8,029.4,11.1,0000.0,0005.72,0001.39,0000.82
2023-09-07 21:32:00,SystemResetWarning,0831.2,4.99,000.00,027.8,026.6,000.0,035.9,029.5,11.2,0000.0,0004.40,0001.37,0000.81
2023-09-07 21:33:00,SystemResetWarning,0831.2,4.99,000.00,027.8,025.9,000.0,035.9,029.3,11.2,0000.0,0004.47,0001.34,0000.81
2023-09-07 21:34:00,SystemResetWarning,0831.1,5.00,000.00,027.7,024.7,000.0,035.8,028.9,11.0,0000.0,0004.71,0001.35,0000.81
2023-09-07 21:35:00,SystemResetWarning,0831.1,5.00,000.00,027.6,024.6,000.0,035.8,029.0,11.0,0000.0,0005.14,0001.35,0000.81
2023-09-07 21:36:00,SystemResetWarning,0831.1,5.01,000.00,027.6,024.9,000.0,035.8,029.1,11.2,0000.0,0005.55,0001.41,0000.81
2023-09-07 21:37:00,SystemResetWarning,0831.2,5.00,000.00,027.6,025.3,000.0,035.8,029.2,11.1,0000.0,0005.46,0001.47,0000.81
2023-09-07 21:38:00,SystemResetWarning,0831.3,4.99,000.00,027.7,025.8,000.0,035.8,029.3,11.2,0000.0,0005.47,0001.46,0000.82
2023-09-07 21:39:00,SystemResetWarning,0831.3,5.00,000.00,027.7,026.2,000.0,035.9,029.4,10.7,0000.0,0005.19,0001.43,0000.81
2023-09-07 21:40:00,SystemResetWarning,0831.3,5.00,000.00,027.8,026.6,000.0,035.9,029.5,10.6,0000.0,0004.28,0001.42,0000.82
2023-09-07 21:41:00,SystemResetWarning,0831.3,5.00,000.00,027.8,026.6,000.0,035.9,029.6,10.6,0000.0,0004.16,0001.39,0000.82
2023-09-07 21:42:00,SystemResetWarning,0831.3,4.99,000.00,027.8,025.3,000.0,035.9,029.2,10.8,0000.0,0004.17,0001.41,0000.81
2023-09-07 21:43:00,SystemResetWarning,0831.3,5.01,000.00,027.7,024.5,000.0,035.9,029.0,10.9,0000.0,0004.29,0001.42,0000.81
2023-09-07 21:44:00,SystemResetWarning,0831.3,5.01,000.00,027.6,024.8,000.0,035.8,029.1,11.1,0000.0,0004.19,0001.42,0000.82
2023-09-07 21:45:00,SystemResetWarning,0831.3,4.99,000.00,027.6,025.1,000.0,035.8,029.1,11.3,0000.0,0004.44,0001.47,0000.82
2023-09-07 21:46:00,SystemResetWarning,0831.3,5.00,000.00,027.7,025.6,000.0,035.8,029.2,11.6,0000.0,0003.96,0001.46,0000.82
2023-09-07 21:47:00,SystemResetWarning,0831.3,4.99,000.00,027.7,026.0,000.0,035.9,029.4,11.5,0000.0,0003.50,0001.44,0000.81
2023-09-07 21:48:00,SystemResetWarning,0831.3,4.99,000.00,027.8,026.4,000.0,035.9,029.5,11.6,0000.0,0002.97,0001.33,0000.80
2023-09-07 21:49:00,SystemResetWarning,0831.3,5.00,000.00,027.8,026.5,000.0,035.9,029.6,11.7,0000.0,0002.90,0001.31,0000.79
2023-09-07 21:50:00,SystemResetWarning,0831.3,4.99,000.00,027.8,025.3,000.0,035.9,029.1,11.2,0000.0,0002.99,0001.35,0000.80
2023-09-07 21:51:00,SystemResetWarning,0831.3,5.02,000.00,027.7,024.6,000.0,035.9,028.9,10.8,0000.0,0003.21,0001.38,0000.81
2023-09-07 21:52:00,SystemResetWarning,0831.3,5.01,000.00,027.6,024.8,000.0,035.9,029.1,11.0,0000.0,0003.77,0001.41,0000.82
2023-09-07 21:53:00,SystemResetWarning,0831.3,4.99,000.00,027.6,025.2,000.0,035.8,029.1,11.0,0000.0,0003.81,0001.39,0000.81
2023-09-07 21:54:00,SystemResetWarning,0831.3,5.00,000.00,027.7,025.6,000.0,035.9,029.2,10.6,0000.0,0003.63,0001.37,0000.80
2023-09-07 21:55:00,SystemResetWarning,0831.3,5.01,000.00,027.7,026.0,000.0,035.9,029.4,10.7,0000.0,0003.60,0001.40,0000.80
2023-09-07 21:56:00,SystemResetWarning,0831.3,5.00,000.00,027.8,026.4,000.0,035.9,029.5,10.7,0000.0,0003.17,0001.35,0000.79
2023-09-07 21:57:00,SystemResetWarning,0831.4,5.00,000.00,027.8,026.5,000.0,035.9,029.5,10.7,0000.0,0003.18,0001.35,0000.81
2023-09-07 21:58:00,SystemResetWarning,0831.3,4.98,000.00,027.8,025.2,000.0,035.9,029.1,10.7,0000.0,0003.30,0001.38,0000.81
2023-09-07 21:59:00,SystemResetWarning,0831.3,5.01,000.00,027.7,024.4,000.0,035.9,028.9,10.5,0000.0,0003.36,0001.44,0000.82
